User: anonymous   Login
Location: Taipo
(41.0000°S, 175.9500°E)
Time: 13:42:33
(UTC+00:00)
Language:

Cosmos 1470 Rocket - Orbit

View from above orbital plane
View from above orbital plane
View from above satellite
View from above satellite

Ground track
Ground track

The orbit data is extracted from the following two-line orbital elements,

1 14148U 83061B   24173.65386836  .00000579  00000-0  65621-4 0  9993
2 14148  82.5186  29.5263 0021522 162.8481 197.3467 14.84500621193471
Epoch (UTC): 21 June 2024 15:41:34
Eccentricity: 0.0021522
inclination: 82.5186°
perigee height: 600 km
apogee height: 630 km
right ascension of ascending node: 29.5263°
argument of perigee: 162.8481°
revolutions per day: 14.84500621
mean anomaly at epoch: 197.3467°
orbit number at epoch: 19347

The dashed part of the orbit path shows where the satellite is in the earth's shadow,  

DLR